Location: Calabuig
(42.1521°N, 2.9236°E)
Time: 06:25:59
(UTC+00:00)

Daily predictions for brighter satellites

Satellite Brightness Start Highest point End
(mag) Time Altitude Azimuth Time Altitude Azimuth Time Altitude Azimuth
IRIDIUM 103 4.5 19:10:10 10° SSE 19:15:14 54° E 19:20:19 10° NNE
FREGAT/IRIS 2.9 19:13:40 10° SE 19:16:08 38° ENE 19:18:37 10° N
Cosmos 1821 Rocket 4.1 19:10:23 10° S 19:16:23 58° E 19:22:30 10° NNE
Ariane Rocket 3.1 19:12:11 10° SSE 19:17:10 64° ENE 19:22:10 10° N
Cosmos 1805 Rocket 3.6 19:15:06 10° S 19:19:31 81° E 19:24:01 10° N
Intercosmos 25 3.5 19:16:37 10° N 19:19:57 38° ENE 19:22:56 10° SSE
Shenzhou-11 Module 4.0 19:18:44 10° WSW 19:20:03 14° SSW 19:21:21 10° S
Cosmos 1812 2.7 19:17:47 10° N 19:21:38 69° E 19:25:27 10° SSE
Cosmos 407 Rocket 3.6 19:16:23 10° SSW 19:21:43 87° WNW 19:27:01 10° NNE
SJ-6B 3.0 19:21:11 10° SSE 19:25:08 58° ENE 19:29:02 10° N
Cosmos 1862 3.7 19:21:52 10° SSW 19:25:54 69° W 19:29:57 10° N
Cosmos 1190 Rocket 4.0 19:20:38 10° SSW 19:25:55 83° ESE 19:31:15 10° NNE
deb Kosmos-1763 3.9 19:23:41 10° SSW 19:27:18 72° ESE 19:30:56 10° NNE
Cosmos 1140 Rocket 3.5 19:22:30 10° SSW 19:27:45 83° ESE 19:33:01 10° NNE
Resurs 1-3 4.4 19:26:20 10° SE 19:30:18 35° ENE 19:34:18 10° N
OBJECT-B 1.7 19:29:55 10° SE 19:32:52 32° ENE 19:35:52 10° N
Cosmos 1441 Rocket 3.7 19:29:24 10° SSW 19:33:07 62° WNW 19:36:51 10° N
Cosmos 2084 Rocket 4.3 19:29:42 10° S 19:33:15 28° ESE 19:36:52 10° ENE
IRIDIUM 106 4.3 19:28:17 10° S 19:33:29 80° E 19:38:43 10° N
Cosmos 1633 Rocket 3.3 19:31:35 10° SSE 19:35:49 46° E 19:40:03 10° NNE
Cosmos 1184 Rocket 3.5 19:33:45 10° SSE 19:36:43 32° E 19:39:42 10° NNE
SL-08 RB Rocket 3.9 19:33:24 10° S 19:38:02 79° WSW 19:42:43 10° NNW
Cosmos 1000 Rocket 4.5 19:33:15 10° N 19:39:31 78° E 19:45:40 10° S
Cosmos 2239 Rocket 4.4 19:35:31 10° S 19:41:37 78° E 19:47:48 10° N
Cosmos 921 Rocket 3.9 19:38:21 10° N 19:42:08 31° ENE 19:45:04 14° ESE
Cosmos 2123 Rocket 4.2 19:37:39 10° N 19:43:44 52° ENE 19:49:49 10° SSE
Meteor 1-27 Rocket 3.9 19:43:05 10° N 19:49:03 88° ENE 19:55:00 10° S
Cosmos 1605 Rocket 4.4 19:45:04 10° SSE 19:50:41 40° E 19:56:17 10° NNE
ARGOS 4.2 19:46:54 10° S 19:52:02 46° W 19:57:13 10° NNW
NOSS 3-2 (A) 3.4 19:48:47 10° SW 19:54:23 89° NW 20:00:48 10° NE
Cosmos 1707 Rocket 3.6 19:50:39 10° N 19:55:00 80° W 19:59:18 10° S
CZ-2C R/B 2.7 19:50:41 10° N 19:55:53 81° WNW 20:01:10 10° SSW
Cosmos 192 4.3 19:52:39 10° NNW 19:57:35 72° ENE 20:01:41 15° SSE
USA 267 3.8 19:54:02 10° ENE 19:59:51 33° SE 20:05:39 10° S
SL-4 R/B 4.2 19:58:47 10° WNW 20:02:02 23° NNW 20:05:06 10° NE
MONITOR-E 4.0 20:00:31 15° S 20:02:15 57° W 20:04:34 10° NNW
SL-16 R/B 3.2 19:58:06 10° N 20:03:10 32° NE 20:06:28 18° ESE
BREEZE-M DEB (TANK) 3.8 20:01:05 10° WNW 20:03:28 31° N 20:08:15 10° ENE
SL-27 R/B 3.6 20:04:27 22° E 20:04:27 22° E 20:06:49 10° NE
BREEZE-M DEB (TANK) 3.8 20:00:53 10° WNW 20:04:59 24° SW 20:07:04 12° S
NOSS 3-2 (C) 3.2 19:59:31 10° SSW 20:05:04 68° ESE 20:11:22 10° NE
Cosmos 1470 Rocket 3.6 20:01:19 10° S 20:05:37 54° E 20:09:54 10° NNE
Sich 1 4.4 20:02:16 10° SSW 20:06:28 42° WNW 20:10:42 10° N
Cosmos 2242 Rocket 4.5 20:03:25 10° NNE 20:07:21 31° ENE 20:09:08 23° ESE
Cosmos 2082 Rocket 3.2 20:04:13 10° SW 20:09:42 50° WNW 20:15:14 10° NNE
BREEZE-M DEB (TANK) 4.3 20:08:41 10° WNW 20:10:49 18° N 20:12:21 10° NE
USA 186 4.1 20:10:14 10° WSW 20:11:10 12° W 20:12:07 10° WNW
Meteor 2-20 Rocket 4.4 20:10:17 10° N 20:16:28 81° E 20:21:58 13° S
ERS-1 Rocket 4.5 20:16:14 18° E 20:17:55 21° ENE 20:21:36 10° NNE
Meteor 1-4 Rocket 3.3 20:15:35 10° NNW 20:18:56 48° W 20:21:51 13° S
Cosmos 2322 Rocket 3.1 20:15:20 10° N 20:20:33 35° ENE 20:23:15 23° ESE
Cosmos 2278 4.4 20:16:21 10° NNW 20:21:53 52° WSW 20:27:03 12° S
Cosmos 1850 Rocket 4.0 20:17:01 10° S 20:22:13 60° ESE 20:27:25 10° NNE
Cosmos 1862 Rocket 3.6 20:18:21 10° N 20:22:49 84° WSW 20:25:58 19° S
Meteor 1-25 Rocket 4.1 20:18:32 10° S 20:24:05 80° E 20:29:45 10° NNE
SPOT 1/Viking Rocket 4.3 20:23:32 26° ESE 20:25:40 36° ENE 20:30:26 10° N
USA 32 3.9 20:21:37 10° S 20:26:50 81° E 20:32:05 10° N
Terra 3.6 20:27:56 15° ENE 20:28:51 16° ENE 20:31:42 10° NNE
USA 276 3.4 20:26:17 10° NW 20:29:13 33° NNE 20:30:10 27° ENE
Cosmos 2360 Rocket 3.6 20:24:58 10° N 20:29:32 24° NE 20:31:48 19° E
X-37B 0.7 20:26:34 10° WNW 20:29:43 71° NNE 20:30:22 50° E
ATLAS 3B R/B 3.0 20:24:12 10° S 20:30:11 38° ESE 20:36:11 10° NE
IGS 5A 3.9 20:29:39 35° ESE 20:30:47 44° ENE 20:34:46 10° N
Meteor 1-18 Rocket 4.3 20:25:39 10° N 20:31:09 59° ENE 20:33:52 29° SE
Cosmos 1238 Rocket 1.9 20:30:32 46° S 20:31:17 89° ESE 20:34:17 10° N
Cosmos 468 Rocket 3.9 20:31:59 10° NNW 20:37:19 77° ENE 20:39:43 33° SSE
Resurs 01 Rocket 1.9 20:34:56 22° S 20:37:42 67° WSW 20:42:08 10° NNW
Cosmos 1980 Rocket 3.2 20:33:17 10° NW 20:38:34 41° WSW 20:43:06 13° S
Cosmos 44 3.9 20:34:00 10° NNW 20:38:47 47° NE 20:40:36 33° ESE
Cosmos 1602 3.6 20:37:46 29° S 20:39:41 87° E 20:43:39 10° N
Lacrosse 5 1.8 20:34:48 10° NW 20:39:54 86° NE 20:41:50 39° SE
Cosmos 1153 Rocket 4.4 20:36:52 21° S 20:41:04 65° E 20:47:12 10° NNE
Cosmos 1447 Rocket 4.5 20:35:44 10° N 20:42:04 71° E 20:45:25 29° SSE
GP-B 3.2 20:41:35 10° N 20:46:02 74° W 20:48:37 24° SSW
Cosmos 1933 Rocket 3.6 20:42:59 19° SSW 20:46:09 77° W 20:50:36 10° N
Cosmos 405 Rocket 3.4 20:50:04 18° SSW 20:52:35 50° WNW 20:56:15 10° N
Spot 2 Rocket 3.4 20:51:17 41° SSE 20:53:07 78° ENE 20:58:13 10° N
Cosmos 1869 Rocket 3.7 20:57:44 54° E 20:57:49 54° E 21:02:11 10° NNE
CENTAUR R/B 3.0 20:52:26 10° SW 20:58:15 60° NW 21:05:09 10° NNE
Cosmos 1515 3.5 20:55:42 10° N 20:59:32 83° E 20:59:36 82° ESE
Cosmos 1741 Rocket 4.4 20:55:58 10° SSW 21:01:10 65° WNW 21:06:27 10° NNE
Okean 1-7 2.8 20:57:06 10° N 21:01:25 78° E 21:01:51 69° SE
OBJECT-B 3.8 21:03:54 10° WSW 21:05:21 12° W 21:06:48 10° WNW
Cosmos 1437 Rocket 2.7 21:03:28 10° NNW 21:07:15 74° W 21:07:19 74° WSW
Cosmos 1763 Rocket 3.8 21:06:18 10° NNW 21:11:33 61° WSW 21:13:14 41° SSW
Cosmos 1703 Rocket 3.6 21:07:24 10° NNW 21:11:44 71° W 21:12:20 60° SSW
H-2A R/B 4.5 21:08:14 10° N 21:12:10 44° WNW 21:14:44 20° SW
Cosmos 2333 Rocket 3.7 21:09:30 10° N 21:14:01 23° NE 21:15:19 21° ENE
Cosmos 1570 Rocket 4.0 21:08:42 10° NNW 21:14:04 76° ENE 21:14:57 61° SE
ATLAS 5 CENTAUR R/B 3.7 21:11:33 10° N 21:14:20 27° NE 21:14:58 26° ENE
Landsat 7 4.1 21:15:20 45° SSW 21:16:32 61° WSW 21:21:16 10° NNW
SPOT 5 2.8 21:17:39 58° ENE 21:17:39 58° ENE 21:21:47 10° N
Meteor 1-5 Rocket 4.2 21:18:35 52° SSE 21:20:03 73° E 21:25:57 10° NNE
Cosmos 2208 Rocket 3.8 21:20:18 10° NNW 21:25:34 79° ENE 21:25:57 73° ESE
Meteor 1-11 Rocket 3.7 21:31:46 61° E 21:31:48 61° E 21:37:30 10° NNE
Lacrosse 4 Rocket 3.0 21:37:37 26° NE 21:37:37 26° NE 21:39:31 10° NNE
Tsikada Rocket 4.4 21:32:24 10° N 21:38:29 46° ENE 21:38:46 46° E
Cosmos 2100 Rocket 4.0 21:36:57 42° SSW 21:39:07 73° W 21:45:17 10° N
SL-4 R/B 4.0 21:39:40 10° NW 21:42:36 21° N 21:42:59 20° NNE
Cosmos 2173 Rocket 4.0 21:41:11 45° SSW 21:43:06 72° W 21:49:14 10° N
USA 267 3.4 21:36:39 10° NE 21:43:09 72° NW 21:49:40 10° WSW
Meteor 2-4 Rocket 3.9 21:38:22 10° NNW 21:43:51 60° W 21:44:40 54° SW
Cosmos 2219 Rocket 3.2 21:38:57 10° N 21:44:03 33° NE 21:44:23 33° ENE
Cosmos 540 Rocket 3.6 21:39:09 10° NNW 21:44:16 62° WSW 21:44:28 61° WSW
SL-16 R/B 3.1 21:42:05 10° NW 21:47:19 39° WSW 21:48:19 36° SW
Cosmos 1725 Rocket 3.8 21:55:17 76° SE 21:55:39 79° E 22:02:00 10° N
Cosmos 1459 Rocket 4.4 21:53:47 39° SW 21:56:00 59° W 22:02:19 10° N
ERS-1 Rocket 3.5 21:56:14 49° WSW 21:56:20 49° W 22:01:14 10° NNW
Meteor 1-23 Rocket 4.5 21:51:49 10° N 21:57:14 58° ENE 21:57:14 58° ENE
Cosmos 2322 3.9 21:52:01 10° NNW 21:57:25 58° NE 21:57:25 58° NE
Cosmos 1833 4.3 21:58:11 65° WSW 21:58:51 73° WNW 22:04:32 10° NNE
SL-08 R/B 4.2 21:59:40 84° SSE 21:59:53 87° E 22:06:02 10° N
Cosmos 2346 Rocket 4.3 21:57:11 10° N 22:03:16 82° W 22:03:31 79° SW
Cosmos 2016 Rocket 4.1 22:02:20 63° SW 22:03:19 76° W 22:09:44 10° N
Meteor 1-13 Rocket 4.3 21:57:55 10° NNW 22:03:23 68° W 22:03:23 68° W
Cosmos 2322 Rocket 3.2 21:59:26 10° NW 22:04:33 35° WSW 22:05:03 34° WSW
Terra 2.4 22:06:49 53° WNW 22:06:49 53° WNW 22:10:50 10° NNW
Cosmos 2221 Rocket 4.5 22:02:12 10° NNW 22:05:37 48° NW 22:05:37 48° NW
Cosmos 2333 4.3 22:06:45 10° NNW 22:12:06 72° NNE 22:12:06 72° NNE
Cosmos 2360 Rocket 2.6 22:08:21 10° NNW 22:13:33 55° W 22:13:33 55° W
USA 234 3.2 22:16:20 69° E 22:17:03 77° NE 22:23:35 10° NW
ATLAS 3B R/B 3.5 22:14:25 10° WSW 22:20:43 46° NW 22:27:06 10° NNE
Lacrosse 5 4.1 22:19:15 10° W 22:21:01 15° WSW 22:21:01 15° WSW
MOS 1-B Rocket 4.1 22:18:30 10° NNE 22:23:10 62° NE 22:23:10 62° NE
Cosmos 2297 Rocket 4.4 22:32:12 14° ENE 22:32:12 14° ENE 22:33:17 10° NE
Cosmos 2233 Rocket 4.0 22:34:08 79° NW 22:34:08 79° NW 22:40:11 10° N
COSMOS 2428 3.1 22:35:06 10° NNW 22:39:48 60° N 22:39:48 60° N
Cosmos 44 Rocket 4.5 22:39:37 10° NNW 22:42:56 42° NNW 22:42:56 42° NNW
Cosmos 2237 Rocket 3.4 22:40:01 10° N 22:44:34 34° NE 22:44:34 34° NE
NOSS 0 Rocket 4.3 22:46:18 10° NNW 22:51:50 57° NNE 22:51:50 57° NNE
Cosmos 2333 Rocket 3.0 22:53:03 10° NNW 22:57:19 46° WNW 22:57:19 46° WNW
Lacrosse 4 Rocket 4.2 23:13:52 13° NW 23:14:28 14° NW 23:16:38 10° NNW
Cosmos 2227 Rocket 3.7 23:22:00 29° NE 23:22:00 29° NE 23:24:51 10° NE
Cosmos 2219 Rocket 3.7 23:22:49 10° NW 23:26:05 29° WNW 23:26:05 29° WNW
